Location: Tel Aviv
(32.0670°N, 34.7670°E)
Time: 15:24:56
(UTC+03:00)

Vanguard 2 - Visible Passes

Search period start: 24 June 2024 00:00
Search period end: 04 July 2024 00:00
Orbit: 552 x 2914 km, 32.9° (Epoch: 23 June)

Date Brightness Start Highest point End Pass type
(mag) Time Alt. Az. Time Alt. Az. Time Alt. Az.
24 Jun 10.5 03:06:42 21° S 03:12:18 29° SE 03:24:57 10° E visible
25 Jun 10.2 03:20:01 25° S 03:26:01 37° SE 03:40:06 10° E visible
26 Jun 11.0 01:32:12 12° SE 01:32:12 12° SE 01:35:30 10° ESE visible
26 Jun 10.1 03:33:19 26° SSW 03:39:50 46° SE 03:54:58 10° ENE visible
27 Jun 10.7 01:45:29 18° SE 01:45:32 18° SE 01:53:05 10° E visible
27 Jun 10.0 03:46:35 26° SSW 03:53:46 56° SSE 04:09:39 10° ENE visible
28 Jun 10.3 01:58:44 24° SE 01:59:07 24° SE 02:08:58 10° E visible
28 Jun 9.9 03:59:50 23° SW 04:07:50 65° SSE 04:24:14 10° ENE visible
29 Jun 10.0 02:11:57 32° SE 02:12:47 32° SE 02:24:13 10° E visible
29 Jun 9.8 04:13:03 19° WSW 04:22:01 74° SSE 04:38:47 10° ENE visible
30 Jun 9.6 02:25:10 40° SSE 02:26:32 41° SE 02:39:07 10° E visible
30 Jun 9.9 04:26:16 15° WSW 04:36:20 82° SSE 04:53:19 10° E visible
01 Jul 9.3 02:38:22 46° S 02:40:25 51° SSE 02:53:50 10° ENE visible
01 Jul 9.9 04:39:29 10° WSW 04:50:43 88° S 05:07:53 10° E visible
02 Jul 10.7 00:50:28 15° ESE 00:50:28 15° ESE 00:53:11 10° E visible
02 Jul 9.1 02:51:34 47° SSW 02:54:25 62° SSE 03:08:26 10° ENE visible
02 Jul 10.0 04:53:47 10° W 05:05:11 88° N 05:22:28 10° E visible
03 Jul 10.3 01:03:39 21° ESE 01:03:39 21° ESE 01:08:36 10° E visible
03 Jul 9.2 03:04:45 43° SW 03:08:34 72° SSE 03:22:59 10° ENE visible
03 Jul 10.0 05:08:07 10° W 05:19:41 87° N 05:37:03 10° E visible
